Weather in Le Touquet-Paris-Plage

France     50°31′01″N   1°35′39″E
temp.,
°C
wind,
m/s
gust,
m/s
humid.,
%
clouds,
%
prec.,
mm/h
press.,
hPa
HPBL,
m
21 june, mon
mon2123:00+15nne71093100 0.0 1007283
02:00+15ne81191100 0.0 1007377
05:00+15ne71190100 0.6 1006456
08:00+15ne71096100 16.6 1007403
11:00+15ne81194100 4.8 1009510
14:00+15ene71094100 7.6 1009465
17:00+16ene81089100 0.8 1010471
20:00+16ne91387100 1.4 1011568
22 june, tue
tue2223:00+14ne111487100 0.8 1013645
02:00+14ene11148499 1.3 1014718
05:00+13ne111585100 4.1 1014691
08:00+13ne101481100 4.1 1016764
11:00+15ne101279100 0.1 10171042
14:00+16ne91172100 0.1 10181144
17:00+15nne101071100 0.0 1019989
20:00+14nne101172100 0.0 1020788
23 june, wed
wed2323:00+13nne91173100 0.0 1021766
02:00+13nne81077100 0.1 1021745
05:00+13nne71081100 0.4 1021787
08:00+13nne71089100 2.9 1021659
11:00+14nne81083100 0.9 1021800
14:00+15nne91080100 1.1 1021861
17:00+14nne81089100 6.9 1021586
20:00+14n9108596 9.9 1021566
24 june, thu
thu2423:00+14nne81185100 1.2 1022483
02:00+14nne81186100 1.6 1021392
05:00+15nne61086100 0.2 1020386
08:00+15nne788794 0.2 1021383
11:00+17n558262 0.0 1021219
14:00+17n778088 0.0 1021223
17:00+17n777771 0.0 1021210
20:00+16nne567246 0.0 1021171
25 june, fri
fri2523:00+15nne33670 0.0 1022110
02:00+15nw11605 0.0 102274
05:00+16wsw2378100 0.0 102192
08:00+16sw348512 0.0 1021159
11:00+16wsw4489100 0.0 1021262
14:00+16wsw458884 0.0 1022272
17:00+16wsw4487100 0.0 1022250
20:00+16w348394 0.0 1022182